• en Suisse
  • Liste des pays
  • À 7 jours
  • Température de l'eau
  • Carte satellitaire
  • Carte météo
  • Widgets météo
  • user-avatar
    Se connecter

    Météo par heure à Serdobyne

    Ce jour, 15 Novembre, Jeudi

    Heure Température Précipitation Vent Pression Humidité
    00:00 -5°C° 0 mm 4 m/s 754 mmHg 84%
    01:00 -5°C° 0 mm 4 m/s 754 mmHg 83%
    02:00 -5°C° 0 mm 3 m/s 754 mmHg 82%
    03:00 -5°C° 0 mm 3 m/s 754 mmHg 80%
    04:00 -7°C° 0 mm 4 m/s 754 mmHg 79%
    05:00 -7°C° 0 mm 4 m/s 755 mmHg 78%
    06:00 -5°C° 0 mm 4 m/s 755 mmHg 74%
    07:00 -6°C° 0 mm 5 m/s 755 mmHg 71%
    08:00 -6°C° 0 mm 5 m/s 755 mmHg 66%
    09:00 -5°C° 0 mm 5 m/s 756 mmHg 59%
    10:00 -4°C° 0 mm 5 m/s 756 mmHg 51%
    11:00 -2°C° 0 mm 5 m/s 756 mmHg 44%
    12:00 -1°C° 0 mm 5 m/s 756 mmHg 42%
    13:00 -1°C° 0 mm 5 m/s 756 mmHg 40%
    14:00 -1°C° 0 mm 5 m/s 756 mmHg 38%
    15:00 -2°C° 0 mm 5 m/s 757 mmHg 40%
    16:00 -4°C° 0 mm 5 m/s 757 mmHg 42%
    17:00 -5°C° 0 mm 5 m/s 757 mmHg 44%
    18:00 -5°C° 0 mm 5 m/s 758 mmHg 43%
    19:00 -5°C° 0 mm 5 m/s 758 mmHg 41%
    20:00 -6°C° 0 mm 5 m/s 758 mmHg 40%
    21:00 -6°C° 0 mm 5 m/s 758 mmHg 39%
    22:00 -6°C° 0 mm 5 m/s 758 mmHg 39%
    23:00 -6°C° 0 mm 5 m/s 759 mmHg 38%

    Demain, 16 Novembre, Vendredi

    Heure Température Précipitation Vent Pression Humidité
    00:00 -6°C° 0 mm 5 m/s 759 mmHg 38%
    01:00 -6°C° 0 mm 5 m/s 759 mmHg 38%
    02:00 -6°C° 0 mm 5 m/s 759 mmHg 38%
    03:00 -7°C° 0 mm 5 m/s 759 mmHg 38%
    04:00 -7°C° 0 mm 5 m/s 759 mmHg 38%
    05:00 -7°C° 0 mm 5 m/s 759 mmHg 38%
    06:00 -8°C° 0 mm 6 m/s 760 mmHg 35%
    07:00 -6°C° 0 mm 6 m/s 760 mmHg 33%
    08:00 -6°C° 0 mm 6 m/s 760 mmHg 31%
    09:00 -5°C° 0 mm 6 m/s 760 mmHg 27%
    10:00 -4°C° 0 mm 6 m/s 760 mmHg 24%
    11:00 -3°C° 0 mm 6 m/s 760 mmHg 21%
    12:00 -2°C° 0 mm 6 m/s 760 mmHg 21%
    13:00 -2°C° 0 mm 6 m/s 760 mmHg 21%
    14:00 -1°C° 0 mm 6 m/s 760 mmHg 20%
    15:00 -2°C° 0 mm 6 m/s 760 mmHg 22%
    16:00 -3°C° 0 mm 6 m/s 760 mmHg 24%
    17:00 -4°C° 0 mm 5 m/s 760 mmHg 26%
    18:00 -4°C° 0 mm 5 m/s 761 mmHg 26%
    19:00 -4°C° 0 mm 5 m/s 761 mmHg 27%
    20:00 -4°C° 0 mm 5 m/s 761 mmHg 27%
    21:00 -5°C° 0 mm 5 m/s 761 mmHg 28%
    22:00 -5°C° 0 mm 5 m/s 761 mmHg 28%
    23:00 -5°C° 0 mm 5 m/s 761 mmHg 29%

    Après-demain, 17 Novembre, Samedi

    Heure Température Précipitation Vent Pression Humidité
    00:00 -5°C° 0 mm 5 m/s 761 mmHg 30%
    01:00 -5°C° 0 mm 4 m/s 761 mmHg 31%
    02:00 -5°C° 0 mm 4 m/s 761 mmHg 31%
    03:00 -5°C° 0 mm 4 m/s 761 mmHg 32%
    04:00 -5°C° 0 mm 4 m/s 760 mmHg 32%
    05:00 -7°C° 0 mm 4 m/s 760 mmHg 32%
    06:00 -5°C° 0 mm 4 m/s 760 mmHg 31%
    07:00 -6°C° 0 mm 5 m/s 760 mmHg 31%
    08:00 -6°C° 0 mm 5 m/s 760 mmHg 30%
    09:00 -5°C° 0 mm 5 m/s 760 mmHg 28%
    10:00 -2°C° 0 mm 4 m/s 760 mmHg 27%
    11:00 -1°C° 0 mm 4 m/s 759 mmHg 25%
    12:00 -1°C° 0 mm 4 m/s 759 mmHg 25%
    13:00 0°C° 0 mm 4 m/s 758 mmHg 25%
    14:00 0°C° 0 mm 4 m/s 758 mmHg 25%
    15:00 0°C° 0 mm 3 m/s 758 mmHg 27%
    16:00 -2°C° 0 mm 3 m/s 757 mmHg 29%
    17:00 -4°C° 0 mm 3 m/s 757 mmHg 32%
    18:00 -4°C° 0 mm 3 m/s 757 mmHg 31%
    19:00 -4°C° 0 mm 2 m/s 757 mmHg 31%
    20:00 -4°C° 0 mm 2 m/s 756 mmHg 31%
    21:00 -4°C° 0 mm 2 m/s 756 mmHg 31%
    22:00 -2°C° 0 mm 1 m/s 756 mmHg 31%
    23:00 -2°C° 0 mm 1 m/s 755 mmHg 31%

    18 Novembre, Dimanche

    Heure Température Précipitation Vent Pression Humidité
    00:00 -2°C° 0 mm 1 m/s 755 mmHg 32%
    01:00 -2°C° 0 mm 1 m/s 754 mmHg 32%
    02:00 -3°C° 0 mm 1 m/s 754 mmHg 32%
    03:00 -3°C° 0 mm 1 m/s 753 mmHg 32%
    04:00 -3°C° 0 mm 1 m/s 753 mmHg 32%
    05:00 -3°C° 0 mm 1 m/s 752 mmHg 32%
    06:00 -3°C° 0 mm 1 m/s 752 mmHg 31%
    07:00 -3°C° 0 mm 0 m/s 752 mmHg 31%
    08:00 -3°C° 0 mm 0 m/s 751 mmHg 30%
    09:00 -1°C° 0 mm 1 m/s 751 mmHg 28%
    10:00 0°C° 0 mm 1 m/s 751 mmHg 26%
    11:00 +2°C° 0 mm 1 m/s 751 mmHg 24%
    12:00 +2°C° 0 mm 1 m/s 750 mmHg 24%
    13:00 +2°C° 0 mm 1 m/s 750 mmHg 25%
    14:00 +3°C° 0 mm 1 m/s 750 mmHg 25%
    15:00 +1°C° 0 mm 1 m/s 750 mmHg 28%
    16:00 0°C° 0 mm 1 m/s 750 mmHg 31%
    17:00 -1°C° 0 mm 1 m/s 750 mmHg 34%
    18:00 -1°C° 0 mm 1 m/s 750 mmHg 35%
    19:00 -1°C° 0 mm 1 m/s 750 mmHg 35%
    20:00 -2°C° 0 mm 1 m/s 750 mmHg 36%
    21:00 -2°C° 0 mm 1 m/s 750 mmHg 37%
    22:00 -2°C° 0 mm 1 m/s 750 mmHg 38%
    23:00 -2°C° 0 mm 1 m/s 751 mmHg 39%

    19 Novembre, Lundi

    Heure Température Précipitation Vent Pression Humidité
    00:00 -2°C° 0 mm 1 m/s 751 mmHg 40%
    01:00 -2°C° 0 mm 1 m/s 751 mmHg 41%
    02:00 -2°C° 0 mm 1 m/s 751 mmHg 41%
    03:00 -3°C° 0 mm 1 m/s 751 mmHg 42%
    04:00 -3°C° 0 mm 1 m/s 752 mmHg 43%
    05:00 -5°C° 0 mm 2 m/s 752 mmHg 44%
    06:00 -5°C° 0 mm 2 m/s 752 mmHg 45%
    07:00 -4°C° 0 mm 2 m/s 753 mmHg 45%
    08:00 -4°C° 0 mm 2 m/s 753 mmHg 45%
    09:00 -3°C° 0 mm 2 m/s 753 mmHg 43%
    10:00 -1°C° 0 mm 3 m/s 754 mmHg 40%
    11:00 0°C° 0 mm 3 m/s 754 mmHg 38%
    12:00 +1°C° 0 mm 3 m/s 754 mmHg 39%
    13:00 +1°C° 0 mm 3 m/s 754 mmHg 40%
    14:00 +1°C° 0 mm 3 m/s 754 mmHg 42%
    15:00 0°C° 0 mm 3 m/s 754 mmHg 46%
    16:00 -1°C° 0 mm 3 m/s 754 mmHg 50%
    17:00 -3°C° 0 mm 4 m/s 755 mmHg 53%
    18:00 -3°C° 0 mm 4 m/s 755 mmHg 52%
    19:00 -3°C° 0 mm 4 m/s 755 mmHg 51%
    20:00 -3°C° 0 mm 4 m/s 755 mmHg 50%
    21:00 -3°C° 0 mm 4 m/s 755 mmHg 51%
    22:00 -3°C° 0 mm 4 m/s 755 mmHg 53%
    23:00 -4°C° 0 mm 4 m/s 755 mmHg 54%

    20 Novembre, Mardi

    Heure Température Précipitation Vent Pression Humidité
    00:00 -4°C° 0 mm 4 m/s 755 mmHg 55%
    01:00 -4°C° 0 mm 4 m/s 755 mmHg 56%
    02:00 -4°C° 0 mm 4 m/s 755 mmHg 57%
    03:00 -4°C° 0 mm 4 m/s 755 mmHg 58%
    04:00 -4°C° 0 mm 4 m/s 755 mmHg 59%
    05:00 -4°C° 0 mm 4 m/s 755 mmHg 60%
    06:00 -3°C° 0 mm 4 m/s 755 mmHg 59%
    07:00 -3°C° 0 mm 4 m/s 755 mmHg 58%
    08:00 -3°C° 0 mm 4 m/s 755 mmHg 57%
    09:00 -2°C° 0 mm 5 m/s 755 mmHg 55%
    10:00 -2°C° 0 mm 5 m/s 754 mmHg 53%
    11:00 -1°C° 0 mm 5 m/s 754 mmHg 50%
    12:00 -1°C° 0 mm 4 m/s 754 mmHg 52%
    13:00 -1°C° 0 mm 4 m/s 754 mmHg 53%
    14:00 -1°C° 0 mm 4 m/s 753 mmHg 54%
    15:00 -2°C° 0 mm 4 m/s 753 mmHg 57%
    16:00 -2°C° 0 mm 4 m/s 753 mmHg 59%
    17:00 -2°C° 0 mm 3 m/s 754 mmHg 62%
    18:00 -2°C° 0 mm 3 m/s 753 mmHg 65%
    19:00 -4°C° 0 mm 3 m/s 753 mmHg 69%
    20:00 -4°C° 0 mm 3 m/s 753 mmHg 73%
    21:00 -4°C° 0 mm 3 m/s 753 mmHg 76%
    22:00 -4°C° 0 mm 3 m/s 753 mmHg 80%
    23:00 -4°C° 0 mm 3 m/s 753 mmHg 83%
    Voir plus